Year,Month,Day,Hour,Minute,Value (Times are PST for temperature in C)
2006,09,24,00,00,10.80
2006,09,24,00,01,10.80
2006,09,24,00,02,10.80
2006,09,24,00,03,10.80
2006,09,24,00,04,10.70
2006,09,24,00,05,10.70
2006,09,24,00,06,10.70
2006,09,24,00,07,10.70
2006,09,24,00,08,10.70
2006,09,24,00,09,10.60
2006,09,24,00,10,10.60
2006,09,24,00,11,10.60
2006,09,24,00,12,10.60
2006,09,24,00,13,10.60
2006,09,24,00,14,10.60
2006,09,24,00,15,10.60
2006,09,24,00,16,10.60
2006,09,24,00,17,10.60
2006,09,24,00,18,10.60
2006,09,24,00,19,10.40
2006,09,24,00,20,10.40
2006,09,24,00,21,10.40
2006,09,24,00,22,10.40
2006,09,24,00,23,10.40
2006,09,24,00,24,10.40
2006,09,24,00,25,10.40
2006,09,24,00,26,10.40
2006,09,24,00,27,10.40
2006,09,24,00,28,10.40
2006,09,24,00,29,10.40
2006,09,24,00,30,10.40
2006,09,24,00,31,10.40
2006,09,24,00,32,10.40
2006,09,24,00,33,10.40
2006,09,24,00,34,10.40
2006,09,24,00,35,10.40
2006,09,24,00,36,10.40
2006,09,24,00,37,10.30
2006,09,24,00,38,10.30
2006,09,24,00,39,10.30
2006,09,24,00,40,10.30
2006,09,24,00,41,10.30
2006,09,24,00,42,10.30
2006,09,24,00,43,10.20
2006,09,24,00,44,10.20
2006,09,24,00,45,10.20
2006,09,24,00,46,10.20
2006,09,24,00,47,10.20
2006,09,24,00,48,10.10
2006,09,24,00,49,10.10
2006,09,24,00,50,10.10
2006,09,24,00,51,10.10
2006,09,24,00,52,10.10
2006,09,24,00,53,10.10
2006,09,24,00,54,10.10
2006,09,24,00,55,10.10
2006,09,24,00,56,10.10
2006,09,24,00,57,10.00
2006,09,24,00,58,9.90
2006,09,24,00,59,9.90
2006,09,24,01,00,9.90
2006,09,24,01,01,9.90
2006,09,24,01,02,9.90
2006,09,24,01,03,9.90
2006,09,24,01,04,9.90
2006,09,24,01,05,9.90
2006,09,24,01,06,9.90
2006,09,24,01,07,9.90
2006,09,24,01,08,9.90
2006,09,24,01,09,9.90
2006,09,24,01,10,9.90
2006,09,24,01,11,9.90
2006,09,24,01,12,9.90
2006,09,24,01,13,9.90
2006,09,24,01,14,9.90
2006,09,24,01,15,9.90
2006,09,24,01,16,9.90
2006,09,24,01,17,9.90
2006,09,24,01,18,9.90
2006,09,24,01,19,9.90
2006,09,24,01,20,9.90
2006,09,24,01,21,9.90
2006,09,24,01,22,9.90
2006,09,24,01,23,9.80
2006,09,24,01,24,9.80
2006,09,24,01,25,9.80
2006,09,24,01,26,9.80
2006,09,24,01,27,9.80
2006,09,24,01,28,9.80
2006,09,24,01,29,9.80
2006,09,24,01,30,9.80
2006,09,24,01,31,9.80
2006,09,24,01,32,9.80
2006,09,24,01,33,9.80
2006,09,24,01,34,9.80
2006,09,24,01,35,9.80
2006,09,24,01,36,9.70
2006,09,24,01,37,9.70
2006,09,24,01,38,9.70
2006,09,24,01,39,9.70
2006,09,24,01,40,9.70
2006,09,24,01,41,9.70
2006,09,24,01,42,9.70
2006,09,24,01,43,9.70
2006,09,24,01,44,9.70
2006,09,24,01,45,9.70
2006,09,24,01,46,9.70
2006,09,24,01,47,9.70
2006,09,24,01,48,9.70
2006,09,24,01,49,9.70
2006,09,24,01,50,9.70
2006,09,24,01,51,9.70
2006,09,24,01,52,9.70
2006,09,24,01,53,9.70
2006,09,24,01,54,9.70
2006,09,24,01,55,9.70
2006,09,24,01,56,9.70
2006,09,24,01,57,9.70
2006,09,24,01,58,9.70
2006,09,24,01,59,9.70
2006,09,24,02,00,9.70
2006,09,24,02,01,9.70
2006,09,24,02,02,9.70
2006,09,24,02,03,9.70
2006,09,24,02,04,9.70
2006,09,24,02,05,9.70
2006,09,24,02,06,9.70
2006,09,24,02,07,9.80
2006,09,24,02,08,9.80
2006,09,24,02,09,9.80
2006,09,24,02,10,9.80
2006,09,24,02,11,9.80
2006,09,24,02,12,9.80
2006,09,24,02,13,9.80
2006,09,24,02,14,9.80
2006,09,24,02,15,9.80
2006,09,24,02,16,9.80
2006,09,24,02,17,9.80
2006,09,24,02,18,9.80
2006,09,24,02,19,9.80
2006,09,24,02,20,9.80
2006,09,24,02,21,9.90
2006,09,24,02,22,9.90
2006,09,24,02,23,9.90
2006,09,24,02,24,9.90
2006,09,24,02,25,9.80
2006,09,24,02,26,9.80
2006,09,24,02,27,9.80
2006,09,24,02,28,9.80
2006,09,24,02,29,9.80
2006,09,24,02,30,9.80
2006,09,24,02,31,9.80
2006,09,24,02,32,9.80
2006,09,24,02,33,9.80
2006,09,24,02,34,9.80
2006,09,24,02,35,9.80
2006,09,24,02,36,9.80
2006,09,24,02,37,9.80
2006,09,24,02,38,9.70
2006,09,24,02,39,9.70
2006,09,24,02,40,9.70
2006,09,24,02,41,9.70
2006,09,24,02,42,9.70
2006,09,24,02,43,9.70
2006,09,24,02,44,9.70
2006,09,24,02,45,9.70
2006,09,24,02,46,9.70
2006,09,24,02,47,9.70
2006,09,24,02,48,9.70
2006,09,24,02,49,9.70
2006,09,24,02,50,9.70
2006,09,24,02,51,9.70
2006,09,24,02,52,9.70
2006,09,24,02,53,9.70
2006,09,24,02,54,9.70
2006,09,24,02,55,9.70
2006,09,24,02,56,9.70
2006,09,24,02,57,9.70
2006,09,24,02,58,9.70
2006,09,24,02,59,9.70
2006,09,24,03,00,9.70
2006,09,24,03,01,9.70
2006,09,24,03,02,9.70
2006,09,24,03,03,9.70
2006,09,24,03,04,9.70
2006,09,24,03,05,9.70
2006,09,24,03,06,9.70
2006,09,24,03,07,9.70
2006,09,24,03,08,9.70
2006,09,24,03,09,9.70
2006,09,24,03,10,9.70
2006,09,24,03,11,9.70
2006,09,24,03,12,9.70
2006,09,24,03,13,9.70
2006,09,24,03,14,9.70
2006,09,24,03,15,9.70
2006,09,24,03,16,9.70
2006,09,24,03,17,9.70
2006,09,24,03,18,9.70
2006,09,24,03,19,9.70
2006,09,24,03,20,9.70
2006,09,24,03,21,9.70
2006,09,24,03,22,9.70
2006,09,24,03,23,9.70
2006,09,24,03,24,9.70
2006,09,24,03,25,9.70
2006,09,24,03,26,9.70
2006,09,24,03,27,9.70
2006,09,24,03,28,9.70
2006,09,24,03,29,9.70
2006,09,24,03,30,9.70
2006,09,24,03,31,9.70
2006,09,24,03,32,9.60
2006,09,24,03,33,9.60
2006,09,24,03,34,9.60
2006,09,24,03,35,9.60
2006,09,24,03,36,9.60
2006,09,24,03,37,9.60
2006,09,24,03,38,9.60
2006,09,24,03,39,9.60
2006,09,24,03,40,9.60
2006,09,24,03,41,9.60
2006,09,24,03,42,9.60
2006,09,24,03,43,9.60
2006,09,24,03,44,9.60
2006,09,24,03,45,9.60
2006,09,24,03,46,9.60
2006,09,24,03,47,9.60
2006,09,24,03,48,9.60
2006,09,24,03,49,9.60
2006,09,24,03,50,9.60
2006,09,24,03,51,9.60
2006,09,24,03,52,9.60
2006,09,24,03,53,9.60
2006,09,24,03,54,9.50
2006,09,24,03,55,9.60
2006,09,24,03,56,9.50
2006,09,24,03,57,9.50
2006,09,24,03,58,9.50
2006,09,24,03,59,9.50
2006,09,24,04,00,9.50
2006,09,24,04,01,9.50
2006,09,24,04,02,9.50
2006,09,24,04,03,9.50
2006,09,24,04,04,9.50
2006,09,24,04,05,9.50
2006,09,24,04,06,9.50
2006,09,24,04,07,9.50
2006,09,24,04,08,9.50
2006,09,24,04,09,9.50
2006,09,24,04,10,9.50
2006,09,24,04,11,9.50
2006,09,24,04,12,9.60
2006,09,24,04,13,9.60
2006,09,24,04,14,9.60
2006,09,24,04,15,9.60
2006,09,24,04,16,9.60
2006,09,24,04,17,9.70
2006,09,24,04,18,9.70
2006,09,24,04,19,9.70
2006,09,24,04,20,9.70
2006,09,24,04,21,9.70
2006,09,24,04,22,9.70
2006,09,24,04,23,9.70
2006,09,24,04,24,9.70
2006,09,24,04,25,9.70
2006,09,24,04,26,9.70
2006,09,24,04,27,9.70
2006,09,24,04,28,9.60
2006,09,24,04,29,9.60
2006,09,24,04,30,9.60
2006,09,24,04,31,9.60
2006,09,24,04,32,9.60
2006,09,24,04,33,9.50
2006,09,24,04,34,9.50
2006,09,24,04,35,9.50
2006,09,24,04,36,9.50
2006,09,24,04,37,9.50
2006,09,24,04,38,9.50
2006,09,24,04,39,9.40
2006,09,24,04,40,9.40
2006,09,24,04,41,9.40
2006,09,24,04,42,9.40
2006,09,24,04,43,9.40
2006,09,24,04,44,9.40
2006,09,24,04,45,9.40
2006,09,24,04,46,9.40
2006,09,24,04,47,9.30
2006,09,24,04,48,9.30
2006,09,24,04,49,9.30
2006,09,24,04,50,9.30
2006,09,24,04,51,9.30
2006,09,24,04,52,9.20
2006,09,24,04,53,9.20
2006,09,24,04,54,9.20
2006,09,24,04,55,9.20
2006,09,24,04,56,9.20
2006,09,24,04,57,9.20
2006,09,24,04,58,9.20
2006,09,24,04,59,9.20
2006,09,24,05,00,9.20
2006,09,24,05,01,9.20
2006,09,24,05,02,9.20
2006,09,24,05,03,9.20
2006,09,24,05,04,9.20
2006,09,24,05,05,9.20
2006,09,24,05,06,9.20
2006,09,24,05,07,9.20
2006,09,24,05,08,9.20
2006,09,24,05,09,9.20
2006,09,24,05,10,9.20
2006,09,24,05,11,9.20
2006,09,24,05,12,9.10
2006,09,24,05,13,9.10
2006,09,24,05,14,9.10
2006,09,24,05,15,9.10
2006,09,24,05,16,9.10
2006,09,24,05,17,9.10
2006,09,24,05,18,9.10
2006,09,24,05,19,9.10
2006,09,24,05,20,9.10
2006,09,24,05,21,9.00
2006,09,24,05,22,9.00
2006,09,24,05,23,9.00
2006,09,24,05,24,9.00
2006,09,24,05,25,9.00
2006,09,24,05,26,9.00
2006,09,24,05,27,9.00
2006,09,24,05,28,9.00
2006,09,24,05,29,9.00
2006,09,24,05,30,9.00
2006,09,24,05,31,9.00
2006,09,24,05,32,8.90
2006,09,24,05,33,8.90
2006,09,24,05,34,8.90
2006,09,24,05,35,8.90
2006,09,24,05,36,8.90
2006,09,24,05,37,8.90
2006,09,24,05,38,8.90
2006,09,24,05,39,8.90
2006,09,24,05,40,8.90
2006,09,24,05,41,8.80
2006,09,24,05,42,8.80
2006,09,24,05,43,8.80
2006,09,24,05,44,8.80
2006,09,24,05,45,8.80
2006,09,24,05,46,8.80
2006,09,24,05,47,8.80
2006,09,24,05,48,8.80
2006,09,24,05,49,8.80
2006,09,24,05,50,8.90
2006,09,24,05,51,8.90
2006,09,24,05,52,8.90
2006,09,24,05,53,8.90
2006,09,24,05,54,8.90
2006,09,24,05,55,8.90
2006,09,24,05,56,8.90
2006,09,24,05,57,8.90
2006,09,24,05,58,8.90
2006,09,24,05,59,8.90
2006,09,24,06,00,8.90
2006,09,24,06,01,8.90
2006,09,24,06,02,8.90
2006,09,24,06,03,8.90
2006,09,24,06,04,8.90
2006,09,24,06,05,8.90
2006,09,24,06,06,8.90
2006,09,24,06,07,8.90
2006,09,24,06,08,8.90
2006,09,24,06,09,8.90
2006,09,24,06,10,8.90
2006,09,24,06,11,8.90
2006,09,24,06,12,8.90
2006,09,24,06,13,8.90
2006,09,24,06,14,8.90
2006,09,24,06,15,8.90
2006,09,24,06,16,8.80
2006,09,24,06,17,8.80
2006,09,24,06,18,8.80
2006,09,24,06,19,8.80
2006,09,24,06,20,8.70
2006,09,24,06,21,8.70
2006,09,24,06,22,8.70
2006,09,24,06,23,8.70
2006,09,24,06,24,8.70
2006,09,24,06,25,8.70
2006,09,24,06,26,8.70
2006,09,24,06,27,8.70
2006,09,24,06,28,8.60
2006,09,24,06,29,8.60
2006,09,24,06,30,8.60
2006,09,24,06,31,8.60
2006,09,24,06,32,8.50
2006,09,24,06,33,8.50
2006,09,24,06,34,8.50
2006,09,24,06,35,8.50
2006,09,24,06,36,8.40
2006,09,24,06,37,8.40
2006,09,24,06,38,8.40
2006,09,24,06,39,8.40
2006,09,24,06,40,8.40
2006,09,24,06,41,8.40
2006,09,24,06,42,8.40
2006,09,24,06,43,8.40
2006,09,24,06,44,8.40
2006,09,24,06,45,8.40
2006,09,24,06,46,8.40
2006,09,24,06,47,8.40
2006,09,24,06,48,8.30
2006,09,24,06,49,8.30
2006,09,24,06,50,8.30
2006,09,24,06,51,8.30
2006,09,24,06,52,8.30
2006,09,24,06,53,8.30
2006,09,24,06,54,8.30
2006,09,24,06,55,8.30
2006,09,24,06,56,8.30
2006,09,24,06,57,8.30
2006,09,24,06,58,8.30
2006,09,24,06,59,8.30
2006,09,24,07,00,8.30
2006,09,24,07,01,8.30
2006,09,24,07,02,8.30
2006,09,24,07,03,8.20
2006,09,24,07,04,8.20
2006,09,24,07,05,8.20
2006,09,24,07,06,8.20
2006,09,24,07,07,8.20
2006,09,24,07,08,8.20
2006,09,24,07,09,8.20
2006,09,24,07,10,8.20
2006,09,24,07,11,8.20
2006,09,24,07,12,8.20
2006,09,24,07,13,8.20
2006,09,24,07,14,8.20
2006,09,24,07,15,8.20
2006,09,24,07,16,8.20
2006,09,24,07,17,8.20
2006,09,24,07,18,8.20
2006,09,24,07,19,8.20
2006,09,24,07,20,8.20
2006,09,24,07,21,8.20
2006,09,24,07,22,8.20
2006,09,24,07,23,8.20
2006,09,24,07,24,8.20
2006,09,24,07,25,8.20
2006,09,24,07,26,8.20
2006,09,24,07,27,8.20
2006,09,24,07,28,8.20
2006,09,24,07,29,8.20
2006,09,24,07,30,8.20
2006,09,24,07,31,8.20
2006,09,24,07,32,8.20
2006,09,24,07,33,8.20
2006,09,24,07,34,8.20
2006,09,24,07,35,8.30
2006,09,24,07,36,8.30
2006,09,24,07,37,8.40
2006,09,24,07,38,8.40
2006,09,24,07,39,8.40
2006,09,24,07,40,8.40
2006,09,24,07,41,8.40
2006,09,24,07,42,8.40
2006,09,24,07,43,8.50
2006,09,24,07,44,8.50
2006,09,24,07,45,8.50
2006,09,24,07,46,8.50
2006,09,24,07,47,8.50
2006,09,24,07,48,8.50
2006,09,24,07,49,8.50
2006,09,24,07,50,8.50
2006,09,24,07,51,8.50
2006,09,24,07,52,8.50
2006,09,24,07,53,8.50
2006,09,24,07,54,8.60
2006,09,24,07,55,8.60
2006,09,24,07,56,8.60
2006,09,24,07,57,8.60
2006,09,24,07,58,8.60
2006,09,24,07,59,8.60
2006,09,24,08,00,8.60
2006,09,24,08,01,8.60
2006,09,24,08,02,8.60
2006,09,24,08,03,8.60
2006,09,24,08,04,8.60
2006,09,24,08,05,8.60
2006,09,24,08,06,8.60
2006,09,24,08,07,8.70
2006,09,24,08,08,8.70
2006,09,24,08,09,8.70
2006,09,24,08,10,8.70
2006,09,24,08,11,8.70
2006,09,24,08,12,8.80
2006,09,24,08,13,8.90
2006,09,24,08,14,8.90
2006,09,24,08,15,8.90
2006,09,24,08,16,9.00
2006,09,24,08,17,9.00
2006,09,24,08,18,9.10
2006,09,24,08,19,9.10
2006,09,24,08,20,9.10
2006,09,24,08,21,9.20
2006,09,24,08,22,9.20
2006,09,24,08,23,9.20
2006,09,24,08,24,9.30
2006,09,24,08,25,9.40
2006,09,24,08,26,9.50
2006,09,24,08,27,9.60
2006,09,24,08,28,9.70
2006,09,24,08,29,9.80
2006,09,24,08,30,10.00
2006,09,24,08,31,10.10
2006,09,24,08,32,10.20
2006,09,24,08,33,10.30
2006,09,24,08,34,10.40
2006,09,24,08,35,10.50
2006,09,24,08,36,10.60
2006,09,24,08,37,10.70
2006,09,24,08,38,10.70
2006,09,24,08,39,10.80
2006,09,24,08,40,10.80
2006,09,24,08,41,10.90
2006,09,24,08,42,10.90
2006,09,24,08,43,11.00
2006,09,24,08,44,11.10
2006,09,24,08,45,11.20
2006,09,24,08,46,11.30
2006,09,24,08,47,11.40
2006,09,24,08,48,11.50
2006,09,24,08,49,11.60
2006,09,24,08,50,11.70
2006,09,24,08,51,11.80
2006,09,24,08,52,11.80
2006,09,24,08,53,11.90
2006,09,24,08,54,11.90
2006,09,24,08,55,12.00
2006,09,24,08,56,12.10
2006,09,24,08,57,12.20
2006,09,24,08,58,12.20
2006,09,24,08,59,12.30
2006,09,24,09,00,12.30
2006,09,24,09,01,12.30
2006,09,24,09,02,12.30
2006,09,24,09,03,12.30
2006,09,24,09,04,12.40
2006,09,24,09,05,12.40
2006,09,24,09,06,12.40
2006,09,24,09,07,12.40
2006,09,24,09,08,12.40
2006,09,24,09,09,12.50
2006,09,24,09,10,12.50
2006,09,24,09,11,12.50
2006,09,24,09,12,12.50
2006,09,24,09,13,12.50
2006,09,24,09,14,12.50
2006,09,24,09,15,12.50
2006,09,24,09,16,12.50
2006,09,24,09,17,12.50
2006,09,24,09,18,12.50
2006,09,24,09,19,12.50
2006,09,24,09,20,12.50
2006,09,24,09,21,12.50
2006,09,24,09,22,12.50
2006,09,24,09,23,12.50
2006,09,24,09,24,12.50
2006,09,24,09,25,12.50
2006,09,24,09,26,12.50
2006,09,24,09,27,12.50
2006,09,24,09,28,12.50
2006,09,24,09,29,12.50
2006,09,24,09,30,12.50
2006,09,24,09,31,12.50
2006,09,24,09,32,12.50
2006,09,24,09,33,12.50
2006,09,24,09,34,12.50
2006,09,24,09,35,12.50
2006,09,24,09,36,12.50
2006,09,24,09,37,12.50
2006,09,24,09,38,12.50
2006,09,24,09,39,12.60
2006,09,24,09,40,12.60
2006,09,24,09,41,12.60
2006,09,24,09,42,12.60
2006,09,24,09,43,12.60
2006,09,24,09,44,12.60
2006,09,24,09,45,12.60
2006,09,24,09,46,12.70
2006,09,24,09,47,12.70
2006,09,24,09,48,12.70
2006,09,24,09,49,12.70
2006,09,24,09,50,12.70
2006,09,24,09,51,12.70
2006,09,24,09,52,12.70
2006,09,24,09,53,12.70
2006,09,24,09,54,12.80
2006,09,24,09,55,12.80
2006,09,24,09,56,12.80
2006,09,24,09,57,12.80
2006,09,24,09,58,12.80
2006,09,24,09,59,12.80
2006,09,24,10,00,12.80
2006,09,24,10,01,12.90
2006,09,24,10,02,12.90
2006,09,24,10,03,12.90
2006,09,24,10,04,13.00
2006,09,24,10,05,13.00
2006,09,24,10,06,13.00
2006,09,24,10,07,13.10
2006,09,24,10,08,13.10
2006,09,24,10,09,13.10
2006,09,24,10,10,13.20
2006,09,24,10,11,13.20
2006,09,24,10,12,13.30
2006,09,24,10,13,13.30
2006,09,24,10,14,13.30
2006,09,24,10,15,13.30
2006,09,24,10,16,13.30
2006,09,24,10,17,13.30
2006,09,24,10,18,13.30
2006,09,24,10,19,13.30
2006,09,24,10,20,13.30
2006,09,24,10,21,13.30
2006,09,24,10,22,13.30
2006,09,24,10,23,13.30
2006,09,24,10,24,13.30
2006,09,24,10,25,13.30
2006,09,24,10,26,13.30
2006,09,24,10,27,13.30
2006,09,24,10,28,13.30
2006,09,24,10,29,13.30
2006,09,24,10,30,13.30
2006,09,24,10,31,13.30
2006,09,24,10,32,13.20
2006,09,24,10,33,13.10
2006,09,24,10,34,13.10
2006,09,24,10,35,13.10
2006,09,24,10,36,13.00
2006,09,24,10,37,13.00
2006,09,24,10,38,13.00
2006,09,24,10,39,13.00
2006,09,24,10,40,13.00
2006,09,24,10,41,13.00
2006,09,24,10,42,13.00
2006,09,24,10,43,13.00
2006,09,24,10,44,13.00
2006,09,24,10,45,13.00
2006,09,24,10,46,13.00
2006,09,24,10,47,13.00
2006,09,24,10,48,13.10
2006,09,24,10,49,13.10
2006,09,24,10,50,13.10
2006,09,24,10,51,13.10
2006,09,24,10,52,13.10
2006,09,24,10,53,13.10
2006,09,24,10,54,13.20
2006,09,24,10,55,13.20
2006,09,24,10,56,13.20
2006,09,24,10,57,13.30
2006,09,24,10,58,13.30
2006,09,24,10,59,13.30
2006,09,24,11,00,13.30
2006,09,24,11,01,13.20
2006,09,24,11,02,13.20
2006,09,24,11,03,13.20
2006,09,24,11,04,13.10
2006,09,24,11,05,13.10
2006,09,24,11,06,13.10
2006,09,24,11,07,13.10
2006,09,24,11,08,13.10
2006,09,24,11,09,13.10
2006,09,24,11,10,13.10
2006,09,24,11,11,13.10
2006,09,24,11,12,13.10
2006,09,24,11,13,13.10
2006,09,24,11,14,13.00
2006,09,24,11,15,13.00
2006,09,24,11,16,13.00
2006,09,24,11,17,12.90
2006,09,24,11,18,12.90
2006,09,24,11,19,12.90
2006,09,24,11,20,12.90
2006,09,24,11,21,12.90
2006,09,24,11,22,12.80
2006,09,24,11,23,12.80
2006,09,24,11,24,12.80
2006,09,24,11,25,12.80
2006,09,24,11,26,12.80
2006,09,24,11,27,12.80
2006,09,24,11,28,12.90
2006,09,24,11,29,13.00
2006,09,24,11,30,13.00
2006,09,24,11,31,13.00
2006,09,24,11,32,13.00
2006,09,24,11,33,13.10
2006,09,24,11,34,13.10
2006,09,24,11,35,13.10
2006,09,24,11,36,13.00
2006,09,24,11,37,13.00
2006,09,24,11,38,13.10
2006,09,24,11,39,13.10
2006,09,24,11,40,13.10
2006,09,24,11,41,13.10
2006,09,24,11,42,13.10
2006,09,24,11,43,13.10
2006,09,24,11,44,13.00
2006,09,24,11,45,13.00
2006,09,24,11,46,13.00
2006,09,24,11,47,13.00
2006,09,24,11,48,13.00
2006,09,24,11,49,13.00
2006,09,24,11,50,12.90
2006,09,24,11,51,12.90
2006,09,24,11,52,12.90
2006,09,24,11,53,12.90
2006,09,24,11,54,12.90
2006,09,24,11,55,13.00
2006,09,24,11,56,13.00
2006,09,24,11,57,13.10
2006,09,24,11,58,13.10
2006,09,24,11,59,13.10
2006,09,24,12,00,13.10
2006,09,24,12,01,13.20
2006,09,24,12,02,13.20
2006,09,24,12,03,13.10
2006,09,24,12,04,13.10
2006,09,24,12,05,13.10
2006,09,24,12,06,13.10
2006,09,24,12,07,13.10
2006,09,24,12,08,13.10
2006,09,24,12,09,13.20
2006,09,24,12,10,13.20
2006,09,24,12,11,13.30
2006,09,24,12,12,13.30
2006,09,24,12,13,13.30
2006,09,24,12,14,13.30
2006,09,24,12,15,13.30
2006,09,24,12,16,13.40
2006,09,24,12,17,13.40
2006,09,24,12,18,13.50
2006,09,24,12,19,13.60
2006,09,24,12,20,13.70
2006,09,24,12,21,13.70
2006,09,24,12,22,13.70
2006,09,24,12,23,13.80
2006,09,24,12,24,13.80
2006,09,24,12,25,13.80
2006,09,24,12,26,13.80
2006,09,24,12,27,13.80
2006,09,24,12,28,13.90
2006,09,24,12,29,13.90
2006,09,24,12,30,14.00
2006,09,24,12,31,14.00
2006,09,24,12,32,14.10
2006,09,24,12,33,14.10
2006,09,24,12,34,14.00
2006,09,24,12,35,14.00
2006,09,24,12,36,14.10
2006,09,24,12,37,14.10
2006,09,24,12,38,14.10
2006,09,24,12,39,14.10
2006,09,24,12,40,14.20
2006,09,24,12,41,14.20
2006,09,24,12,42,14.20
2006,09,24,12,43,14.20
2006,09,24,12,44,14.20
2006,09,24,12,45,14.30
2006,09,24,12,46,14.40
2006,09,24,12,47,14.50
2006,09,24,12,48,14.50
2006,09,24,12,49,14.50
2006,09,24,12,50,14.50
2006,09,24,12,51,14.50
2006,09,24,12,52,14.50
2006,09,24,12,53,14.30
2006,09,24,12,54,14.20
2006,09,24,12,55,14.10
2006,09,24,12,56,14.10
2006,09,24,12,57,14.10
2006,09,24,12,58,14.10
2006,09,24,12,59,14.10
2006,09,24,13,00,14.10
2006,09,24,13,01,14.20
2006,09,24,13,02,14.20
2006,09,24,13,03,14.30
2006,09,24,13,04,14.50
2006,09,24,13,05,14.60
2006,09,24,13,06,14.70
2006,09,24,13,07,14.80
2006,09,24,13,08,14.90
2006,09,24,13,09,15.00
2006,09,24,13,10,15.10
2006,09,24,13,11,15.20
2006,09,24,13,12,15.30
2006,09,24,13,13,15.20
2006,09,24,13,14,15.20
2006,09,24,13,15,15.20
2006,09,24,13,16,15.30
2006,09,24,13,17,15.30
2006,09,24,13,18,15.30
2006,09,24,13,19,15.10
2006,09,24,13,20,15.10
2006,09,24,13,21,15.10
2006,09,24,13,22,15.10
2006,09,24,13,23,15.20
2006,09,24,13,24,15.20
2006,09,24,13,25,15.30
2006,09,24,13,26,15.30
2006,09,24,13,27,15.30
2006,09,24,13,28,15.30
2006,09,24,13,29,15.30
2006,09,24,13,30,15.30
2006,09,24,13,31,15.40
2006,09,24,13,32,15.50
2006,09,24,13,33,15.50
2006,09,24,13,34,15.60
2006,09,24,13,35,15.70
2006,09,24,13,36,15.70
2006,09,24,13,37,15.70
2006,09,24,13,38,15.70
2006,09,24,13,39,15.70
2006,09,24,13,40,15.80
2006,09,24,13,41,15.80
2006,09,24,13,42,15.80
2006,09,24,13,43,15.70
2006,09,24,13,44,15.70
2006,09,24,13,45,15.70
2006,09,24,13,46,15.70
2006,09,24,13,47,15.70
2006,09,24,13,48,15.60
2006,09,24,13,49,15.50
2006,09,24,13,50,15.50
2006,09,24,13,51,15.50
2006,09,24,13,52,15.50
2006,09,24,13,53,15.50
2006,09,24,13,54,15.50
2006,09,24,13,55,15.50
2006,09,24,13,56,15.40
2006,09,24,13,57,15.30
2006,09,24,13,58,15.30
2006,09,24,13,59,15.30
2006,09,24,14,00,15.30
2006,09,24,14,01,15.30
2006,09,24,14,02,15.30
2006,09,24,14,03,15.20
2006,09,24,14,04,15.10
2006,09,24,14,05,15.10
2006,09,24,14,06,15.10
2006,09,24,14,07,15.10
2006,09,24,14,08,15.20
2006,09,24,14,09,15.30
2006,09,24,14,10,15.40
2006,09,24,14,11,15.40
2006,09,24,14,12,15.50
2006,09,24,14,13,15.50
2006,09,24,14,14,15.60
2006,09,24,14,15,15.60
2006,09,24,14,16,15.70
2006,09,24,14,17,15.70
2006,09,24,14,18,15.80
2006,09,24,14,19,15.80
2006,09,24,14,20,15.90
2006,09,24,14,21,15.90
2006,09,24,14,22,15.90
2006,09,24,14,23,16.00
2006,09,24,14,24,16.10
2006,09,24,14,25,16.10
2006,09,24,14,26,16.10
2006,09,24,14,27,16.10
2006,09,24,14,28,16.10
2006,09,24,14,29,16.10
2006,09,24,14,30,16.10
2006,09,24,14,31,16.10
2006,09,24,14,32,16.20
2006,09,24,14,33,16.20
2006,09,24,14,34,16.20
2006,09,24,14,35,16.10
2006,09,24,14,36,16.10
2006,09,24,14,37,16.10
2006,09,24,14,38,16.10
2006,09,24,14,39,16.10
2006,09,24,14,40,16.10
2006,09,24,14,41,16.00
2006,09,24,14,42,15.90
2006,09,24,14,43,15.80
2006,09,24,14,44,15.80
2006,09,24,14,45,15.70
2006,09,24,14,46,15.70
2006,09,24,14,47,15.70
2006,09,24,14,48,15.70
2006,09,24,14,49,15.70
2006,09,24,14,50,15.70
2006,09,24,14,51,15.80
2006,09,24,14,52,15.80
2006,09,24,14,53,15.80
2006,09,24,14,54,15.90
2006,09,24,14,55,16.10
2006,09,24,14,56,16.10
2006,09,24,14,57,16.20
2006,09,24,14,58,16.30
2006,09,24,14,59,16.30
2006,09,24,15,00,16.30
2006,09,24,15,01,16.40
2006,09,24,15,02,16.40
2006,09,24,15,03,16.40
2006,09,24,15,04,16.40
2006,09,24,15,05,16.40
2006,09,24,15,06,16.60
2006,09,24,15,07,16.60
2006,09,24,15,08,16.70
2006,09,24,15,09,16.70
2006,09,24,15,10,16.70
2006,09,24,15,11,16.70
2006,09,24,15,12,16.60
2006,09,24,15,13,16.60
2006,09,24,15,14,16.50
2006,09,24,15,15,16.40
2006,09,24,15,16,16.50
2006,09,24,15,17,16.60
2006,09,24,15,18,16.60
2006,09,24,15,19,16.80
2006,09,24,15,20,16.80
2006,09,24,15,21,16.90
2006,09,24,15,22,17.00
2006,09,24,15,23,17.10
2006,09,24,15,24,17.30
2006,09,24,15,25,17.40
2006,09,24,15,26,17.50
2006,09,24,15,27,17.70
2006,09,24,15,28,17.70
2006,09,24,15,29,17.80
2006,09,24,15,30,17.90
2006,09,24,15,31,17.90
2006,09,24,15,32,18.00
2006,09,24,15,33,18.10
2006,09,24,15,34,18.20
2006,09,24,15,35,18.20
2006,09,24,15,36,18.30
2006,09,24,15,37,18.30
2006,09,24,15,38,18.40
2006,09,24,15,39,18.40
2006,09,24,15,40,18.50
2006,09,24,15,41,18.60
2006,09,24,15,42,18.70
2006,09,24,15,43,18.80
2006,09,24,15,44,18.90
2006,09,24,15,45,19.00
2006,09,24,15,46,19.10
2006,09,24,15,47,19.10
2006,09,24,15,48,19.20
2006,09,24,15,49,19.30
2006,09,24,15,50,19.30
2006,09,24,15,51,19.30
2006,09,24,15,52,19.40
2006,09,24,15,53,19.40
2006,09,24,15,54,19.30
2006,09,24,15,55,19.30
2006,09,24,15,56,19.30
2006,09,24,15,57,19.30
2006,09,24,15,58,19.40
2006,09,24,15,59,19.40
2006,09,24,16,00,19.50
2006,09,24,16,01,19.50
2006,09,24,16,02,19.60
2006,09,24,16,03,19.70
2006,09,24,16,04,19.80
2006,09,24,16,05,19.80
2006,09,24,16,06,19.90
2006,09,24,16,07,19.90
2006,09,24,16,08,19.90
2006,09,24,16,09,19.90
2006,09,24,16,10,19.90
2006,09,24,16,11,19.90
2006,09,24,16,12,19.90
2006,09,24,16,13,19.90
2006,09,24,16,14,19.90
2006,09,24,16,15,19.90
2006,09,24,16,16,19.90
2006,09,24,16,17,19.90
2006,09,24,16,18,19.90
2006,09,24,16,19,19.90
2006,09,24,16,20,19.90
2006,09,24,16,21,19.60
2006,09,24,16,22,19.40
2006,09,24,16,23,19.20
2006,09,24,16,24,19.10
2006,09,24,16,25,18.90
2006,09,24,16,26,18.90
2006,09,24,16,27,18.70
2006,09,24,16,28,18.60
2006,09,24,16,29,18.60
2006,09,24,16,30,18.50
2006,09,24,16,31,18.40
2006,09,24,16,32,18.40
2006,09,24,16,33,18.40
2006,09,24,16,34,18.40
2006,09,24,16,35,18.50
2006,09,24,16,36,18.50
2006,09,24,16,37,18.60
2006,09,24,16,38,18.60
2006,09,24,16,39,18.60
2006,09,24,16,40,18.60
2006,09,24,16,41,18.70
2006,09,24,16,42,18.60
2006,09,24,16,43,18.60
2006,09,24,16,44,18.60
2006,09,24,16,45,18.60
2006,09,24,16,46,18.60
2006,09,24,16,47,18.60
2006,09,24,16,48,18.60
2006,09,24,16,49,18.70
2006,09,24,16,50,18.70
2006,09,24,16,51,18.70
2006,09,24,16,52,18.70
2006,09,24,16,53,18.70
2006,09,24,16,54,18.80
2006,09,24,16,55,18.80
2006,09,24,16,56,18.80
2006,09,24,16,57,18.80
2006,09,24,16,58,18.80
2006,09,24,16,59,18.80
2006,09,24,17,00,18.80
2006,09,24,17,01,18.80
2006,09,24,17,02,18.80
2006,09,24,17,03,18.80
2006,09,24,17,04,18.90
2006,09,24,17,05,18.90
2006,09,24,17,06,18.90
2006,09,24,17,07,18.90
2006,09,24,17,08,18.90
2006,09,24,17,09,18.90
2006,09,24,17,10,19.00
2006,09,24,17,11,19.10
2006,09,24,17,12,19.10
2006,09,24,17,13,19.10
2006,09,24,17,14,19.10
2006,09,24,17,15,19.20
2006,09,24,17,16,19.20
2006,09,24,17,17,19.20
2006,09,24,17,18,19.20
2006,09,24,17,19,19.20
2006,09,24,17,20,19.20
2006,09,24,17,21,19.20
2006,09,24,17,22,19.20
2006,09,24,17,23,19.20
2006,09,24,17,24,19.20
2006,09,24,17,25,19.20
2006,09,24,17,26,19.20
2006,09,24,17,27,19.20
2006,09,24,17,28,19.20
2006,09,24,17,29,19.20
2006,09,24,17,30,19.10
2006,09,24,17,31,19.10
2006,09,24,17,32,19.10
2006,09,24,17,33,19.10
2006,09,24,17,34,19.00
2006,09,24,17,35,18.90
2006,09,24,17,36,18.90
2006,09,24,17,37,18.90
2006,09,24,17,38,18.90
2006,09,24,17,39,18.80